TimeEDT,TemperatureF,Dew PointF,Humidity,Sea Level PressureIn,VisibilityMPH,Wind Direction,Wind SpeedMPH,Gust SpeedMPH,PrecipitationIn,Events,Conditions,WindDirDegrees,DateUTC
12:43 AM,32.0,30.2,93,29.94,1.0,NNW,23.0,29.9,0.04,Snow,Light Snow,340,2013-05-12 04:43:00
12:53 AM,32.0,30.0,92,29.98,1.0,NNW,25.3,32.2,0.05,Snow,Light Snow,340,2013-05-12 04:53:00
1:03 AM,32.0,30.2,93,29.94,1.2,NNW,23.0,29.9,0.00,Snow,Light Snow,330,2013-05-12 05:03:00
1:32 AM,32.0,28.4,87,29.95,2.0,NNW,21.9,32.2,0.01,Snow,Light Snow,340,2013-05-12 05:32:00
1:40 AM,32.0,30.2,93,29.95,1.5,NNW,19.6,32.2,0.02,Snow,Light Snow,340,2013-05-12 05:40:00
1:53 AM,32.0,28.9,88,29.99,1.5,NNW,24.2,34.5,0.02,Snow,Light Snow,340,2013-05-12 05:53:00
2:06 AM,32.0,28.4,87,29.96,2.0,NNW,25.3,33.4,0.00,Snow,Light Snow,340,2013-05-12 06:06:00
2:37 AM,30.2,28.4,93,29.97,1.5,North,19.6,31.1,0.01,Snow,Light Snow,350,2013-05-12 06:37:00
2:45 AM,30.2,28.4,93,29.97,1.5,NNW,19.6,26.5,0.01,Snow,Light Snow,340,2013-05-12 06:45:00
2:53 AM,30.9,27.0,85,30.01,2.0,NNW,21.9,33.4,0.01,Snow,Light Snow,340,2013-05-12 06:53:00
3:11 AM,32.0,26.6,80,29.97,5.0,NNW,18.4,29.9,0.00,Snow,Light Snow,340,2013-05-12 07:11:00
3:53 AM,32.0,25.0,75,30.02,9.0,NNW,21.9,32.2,0.00,,Overcast,340,2013-05-12 07:53:00
4:53 AM,30.9,23.0,72,30.03,10.0,North,20.7,28.8,0.00,,Overcast,350,2013-05-12 08:53:00
5:53 AM,32.0,21.0,64,30.03,10.0,NNW,16.1,28.8,0.00,,Overcast,340,2013-05-12 09:53:00
6:16 AM,32.0,21.2,64,29.99,10.0,NNW,16.1,24.2,0.00,,Overcast,330,2013-05-12 10:16:00
6:53 AM,32.0,23.0,69,30.04,10.0,NNW,15.0,25.3,0.00,,Overcast,340,2013-05-12 10:53:00
7:53 AM,30.9,21.0,67,30.05,10.0,NNW,19.6,29.9,0.00,,Overcast,330,2013-05-12 11:53:00
8:53 AM,30.9,19.0,61,30.07,10.0,NNW,18.4,32.2,0.00,,Overcast,330,2013-05-12 12:53:00
9:53 AM,30.9,19.9,64,30.08,10.0,NNW,23.0,31.1,0.00,,Overcast,340,2013-05-12 13:53:00
10:53 AM,32.0,19.9,61,30.09,10.0,NNW,21.9,31.1,0.00,,Overcast,340,2013-05-12 14:53:00
11:29 AM,32.0,21.2,64,30.05,10.0,NW,20.7,31.1,0.00,,Overcast,320,2013-05-12 15:29:00
11:53 AM,32.0,21.9,66,30.09,10.0,NW,21.9,31.1,0.00,,Overcast,320,2013-05-12 15:53:00
12:06 PM,32.0,23.0,69,30.05,10.0,NW,24.2,31.1,N/A,,Overcast,320,2013-05-12 16:06:00
12:53 PM,33.1,21.9,64,30.09,10.0,NW,21.9,33.4,N/A,,Overcast,320,2013-05-12 16:53:00
1:53 PM,34.0,21.9,61,30.10,10.0,NW,20.7,31.1,N/A,,Overcast,320,2013-05-12 17:53:00
2:53 PM,36.0,21.9,57,30.09,10.0,NW,20.7,29.9,N/A,,Scattered Clouds,310,2013-05-12 18:53:00
3:53 PM,37.9,21.9,53,30.09,10.0,WNW,18.4,25.3,N/A,,Partly Cloudy,300,2013-05-12 19:53:00
4:53 PM,39.9,21.9,49,30.10,10.0,NW,18.4,23.0,N/A,,Clear,310,2013-05-12 20:53:00
5:53 PM,39.0,21.0,49,30.10,10.0,NW,12.7,24.2,N/A,,Clear,310,2013-05-12 21:53:00
6:53 PM,39.0,19.0,45,30.11,10.0,WNW,16.1,-,N/A,,Clear,300,2013-05-12 22:53:00
7:53 PM,39.0,19.9,46,30.11,10.0,WNW,16.1,-,N/A,,Clear,300,2013-05-12 23:53:00
8:53 PM,37.0,23.0,57,30.11,10.0,WNW,13.8,-,N/A,,Clear,290,2013-05-13 00:53:00
9:53 PM,34.0,24.1,67,30.11,10.0,WNW,10.4,-,N/A,,Clear,290,2013-05-13 01:53:00
10:53 PM,30.9,25.0,79,30.12,10.0,WNW,6.9,-,N/A,,Clear,300,2013-05-13 02:53:00
11:53 PM,30.9,25.0,79,30.12,10.0,WNW,8.1,-,N/A,,Clear,300,2013-05-13 03:53:00